This demonstration page uses our WeatherBlox Daily Observations layout. Learn more.

Left ArrowRight Arrow

39.51506, -84.39828

Hourly Observations for May 23, 2019

Temp ( °F °C ) Dew Point ( °F °C ) Humidity (%) Winds ( mph kmh ) Pressure ( in mb ) Visibility ( mi km ) Precip ( " mm )
12:15 am 00:15 Mostly Cloudy with Fog 61 15.9 60 15.8 99 99 Calm 30.04 1017 0 0 0.00 0.00
12:35 am 00:35 Mostly Cloudy with Mist and Fog 62 16.4 62 16.4 100 100 WNW 3 6 30.04 1017 1 1 0.00 0.00
12:55 am 00:55 Mostly Cloudy with Fog 62 16.5 62 16.4 99 99 Calm 30.05 1018 1 1 0.00 0.00
1:15 am 01:15 Mostly Cloudy with Fog 62 16.8 62 16.7 99 99 Calm 30.05 1018 1 1 0.00 0.00
1:35 am 01:35 Mostly Clear with Fog 62 16.6 62 16.5 99 99 Calm 30.05 1018 1 1 0.00 0.00
1:55 am 01:55 Cloudy with Fog 61 16 61 16 100 100 Calm 30.05 1018 1 1 0.00 0.00
2:15 am 02:15 Cloudy with Fog 62 16.5 62 16.4 99 99 Calm 30.05 1018 0 0 0.00 0.00
2:35 am 02:35 Cloudy with Fog 62 16.4 61 16.3 99 99 Calm 30.04 1017 0 0 0.00 0.00
2:55 am 02:55 Cloudy with Fog 61 16.2 61 16.1 99 99 Calm 30.03 1017 0 0 0.00 0.00
3:15 am 03:15 Mostly Clear with Fog 61 16.1 61 16.1 100 100 Calm 30.04 1017 0 0 0.00 0.00
3:35 am 03:35 Mostly Clear with Fog 61 15.9 61 15.9 100 100 Calm 30.04 1017 0 0 0.00 0.00
3:55 am 03:55 Mostly Cloudy with Fog 61 15.9 60 15.8 99 99 Calm 30.04 1017 1 1 0.00 0.00
4:15 am 04:15 Mostly Clear with Fog 61 16 61 15.9 99 99 Calm 30.04 1017 1 1 0.00 0.00
4:35 am 04:35 Mostly Clear with Fog 61 16 61 16 100 100 Calm 30.03 1017 0 0 0.00 0.00
4:55 am 04:55 Mostly Clear with Fog 61 16 61 16 100 100 Calm 30.05 1018 0 0 0.00 0.00
5:15 am 05:15 Cloudy with Fog 61 16.2 61 16.1 99 99 Calm 30.05 1018 0 0 0.00 0.00
5:35 am 05:35 Cloudy with Mist and Fog 61 16.3 61 16.2 99 99 Calm 30.05 1018 1 1 0.00 0.00
5:55 am 05:55 Mostly Cloudy with Mist and Fog 62 16.5 62 16.5 100 100 Calm 30.05 1018 3 4 0.00 0.00
6:15 am 06:15 Cloudy with Mist and Fog 62 16.8 62 16.8 100 100 Calm 30.05 1018 2 3 0.00 0.00
6:35 am 06:35 Partly Cloudy with Mist and Fog 63 17 62 16.9 99 99 Calm 30.06 1018 3 4 0.00 0.00
6:55 am 06:55 Sunny with Mist and Fog 64 17.6 64 17.5 99 99 SW 3 6 30.06 1018 3 5 0.00 0.00
7:15 am 07:15 Sunny with Mist and Fog 64 18 64 17.9 99 99 Calm 30.07 1018 4 6 0.00 0.00
7:35 am 07:35 Mostly Cloudy with Thunderstorms 67 19.4 67 19.2 99 99 NNW 21 33 30.12 1020 7 11 0.00 0.00
7:55 am 07:55 Cloudy with Strong Thunderstorms 66 18.8 65 18.1 96 96 WNW 7 11 30.14 1021 7 11 0.06 1.52
8:15 am 08:15 Cloudy with Strong Thunderstorms 65 18.4 64 17.5 95 95 WSW 10 17 30.15 1021 7 11 0.05 1.27
8:35 am 08:35 Cloudy with Nearby Thunderstorms 65 18.1 64 17.5 96 96 SW 3 6 30.16 1021 7 11 0.09 2.29
8:55 am 08:55 Cloudy with Thunderstorms 65 18.4 64 17.7 96 96 WSW 7 11 30.16 1021 7 11 0.13 3.30
9:15 am 09:15 Cloudy with Rain 65 18.4 64 17.8 96 96 WSW 6 9 30.16 1021 7 11 0.06 1.52
9:35 am 09:35 Cloudy with Rain 65 18.5 64 17.9 96 96 SW 5 7 30.15 1021 7 11 0.08 2.03
9:55 am 09:55 Mostly Cloudy with Light Rain 65 18.6 65 18.1 97 97 S 8 13 30.13 1020 10 16 0.09 2.29
10:15 am 10:15 Partly Cloudy 66 19.1 65 18.4 96 96 WSW 5 7 30.12 1020 10 16 0.00 0.00
10:35 am 10:35 Partly Cloudy 67 19.5 66 18.8 96 96 S 6 9 30.10 1019 10 16 0.00 0.00
10:55 am 10:55 Cloudy 68 20.2 66 18.9 92 92 SSW 9 15 30.10 1019 10 16 0.00 0.00
11:15 am 11:15 Sunny 70 20.9 67 19.4 91 91 SSW 8 13 30.09 1019 10 16 0.00 0.00
11:35 am 11:35 Sunny 71 21.4 66 18.8 85 85 WSW 9 15 30.10 1019 10 16 0.00 0.00
11:55 am 11:55 Sunny 72 22.1 66 18.9 82 82 WSW 14 22 30.11 1020 10 16 0.00 0.00
12:15 pm 12:15 Mostly Cloudy 72 22.1 66 19.1 83 83 WSW 13 20 30.11 1020 10 16 0.00 0.00
12:35 pm 12:35 Sunny 72 22.3 66 19 82 82 WSW 12 19 30.09 1019 10 16 0.00 0.00
12:55 pm 12:55 Sunny 73 22.5 67 19.4 83 83 WSW 10 17 30.09 1019 10 16 0.00 0.00
1:15 pm 13:15 Cloudy 74 23.2 67 19.6 80 80 WSW 16 26 30.08 1019 10 16 0.00 0.00
1:35 pm 13:35 Sunny 76 24.3 69 20.3 78 78 WSW 15 24 30.06 1018 10 16 0.00 0.00
1:55 pm 13:55 Partly Cloudy 78 25.3 70 21.3 79 79 WSW 12 19 30.06 1018 10 16 0.00 0.00
2:15 pm 14:15 Mostly Cloudy 79 25.9 70 21.1 75 75 WSW 15 24 30.05 1018 10 16 0.00 0.00
2:35 pm 14:35 Cloudy 77 25.1 70 20.9 78 78 WSW 16 26 30.06 1018 10 16 0.00 0.00
2:55 pm 14:55 Cloudy 78 25.6 71 21.5 78 78 WSW 12 19 30.05 1018 10 16 0.00 0.00
3:15 pm 15:15 Cloudy 80 26.4 72 22 77 77 WSW 15 24 30.04 1017 10 16 0.00 0.00
3:35 pm 15:35 Mostly Cloudy 80 26.8 72 22.1 75 75 WSW 14 22 30.04 1017 10 16 0.00 0.00
3:55 pm 15:55 Mostly Cloudy 81 27.2 73 22.5 76 76 WSW 12 19 30.02 1017 10 16 0.00 0.00
4:15 pm 16:15 Mostly Cloudy 82 28 72 22 70 70 W 13 20 30.02 1016 10 16 0.00 0.00
4:35 pm 16:35 Partly Cloudy 84 28.8 72 22.4 68 68 W 13 20 30.01 1016 10 16 0.00 0.00
4:55 pm 16:55 Partly Cloudy 83 28.4 71 21.4 66 66 W 13 20 30.01 1016 10 16 0.00 0.00
5:15 pm 17:15 Partly Cloudy 85 29.5 72 22.3 65 65 W 10 17 29.99 1016 10 16 0.00 0.00
5:35 pm 17:35 Sunny with Nearby Thunderstorms 84 29 71 21.8 65 65 W 13 20 29.99 1016 10 16 0.00 0.00
5:55 pm 17:55 Sunny 85 29.7 70 21 60 60 WNW 12 19 30.00 1016 10 16 0.00 0.00
6:15 pm 18:15 Sunny 85 29.5 70 20.9 60 60 WNW 9 15 29.99 1016 10 16 0.00 0.00
6:35 pm 18:35 Sunny 85 29.7 70 20.9 59 59 W 14 22 30.00 1016 10 16 0.00 0.00
6:55 pm 18:55 Partly Cloudy 85 29.6 68 20 56 56 W 13 20 30.00 1016 10 16 0.00 0.00
7:15 pm 19:15 Mostly Cloudy 82 27.8 72 22.1 71 71 WSW 9 15 30.01 1016 10 16 0.00 0.00
7:35 pm 19:35 Mostly Cloudy 81 27.3 72 22.1 73 73 SW 8 13 30.01 1016 10 16 0.00 0.00
7:55 pm 19:55 Partly Cloudy 80 26.8 72 22.3 76 76 WSW 6 9 30.01 1016 10 16 0.00 0.00
8:15 pm 20:15 Sunny 78 25.8 71 21.5 77 77 WSW 8 13 30.02 1017 10 16 0.00 0.00
8:35 pm 20:35 Partly Cloudy 77 25.1 71 21.4 80 80 WSW 8 13 30.02 1017 10 16 0.00 0.00
8:55 pm 20:55 Partly Cloudy 76 24.5 71 21.4 83 83 WSW 8 13 30.02 1017 10 16 0.00 0.00
9:15 pm 21:15 Clear 75 23.7 70 21.1 85 85 WSW 6 9 30.03 1017 10 16 0.00 0.00
9:35 pm 21:35 Clear 73 22.8 70 20.9 89 89 W 3 6 30.04 1017 10 16 0.00 0.00
9:55 pm 21:55 Clear 72 22.3 69 20.8 91 91 W 3 6 30.05 1018 10 16 0.00 0.00
10:35 pm 22:35 Clear 69 20.4 68 20 98 98 Calm 30.07 1018 7 11 0.00 0.00
10:55 pm 22:55 Clear with Mist and Fog 68 19.9 67 19.6 98 98 Calm 30.08 1019 5 8 0.00 0.00
11:15 pm 23:15 Clear with Mist and Fog 68 20.1 68 19.8 98 98 Calm 30.07 1018 5 8 0.00 0.00
11:35 pm 23:35 Clear with Mist and Fog 69 20.3 68 20 98 98 Calm 30.08 1019 4 6 0.00 0.00
11:55 pm 23:55 Clear with Mist and Fog 66 19 66 18.8 99 99 Calm 30.09 1019 3 4 0.00 0.00

Powered by AerisWeather